Precipitable_Water
0.88 0.77 0.63 0.55 0.74 0.70 0.70 0.60 0.50 0.54 0.68 0.67 0.64 0.57 0.58 0.65 0.66 0.65 0.63 0.62 0.65 0.70 0.77 0.80 0.83 0.87 0.89 0.95 0.96 0.98 1.37 1.48 1.43 1.36 1.33 1.39 1.35 1.43 1.49 1.51 1.55 1.58 1.56 1.57
0.80 0.64 0.56 0.81 0.79 0.73 0.67 0.58 0.45 0.59 0.67 0.67 0.63 0.50 0.58 0.60 0.59 0.60 0.59 0.59 0.63 0.64 0.70 0.75 0.79 0.85 0.83 0.85 0.94 0.99 1.27 1.42 1.48 1.39 1.34 1.35 1.40 1.46 1.48 1.52 1.51 1.56 1.60 1.60
0.65 0.67 0.85 0.79 0.72 0.65 0.61 0.56 0.48 0.51 0.65 0.66 0.61 0.43 0.48 0.55 0.57 0.59 0.61 0.59 0.62 0.62 0.66 0.72 0.75 0.79 0.88 0.84 0.85 0.92 1.02 1.44 1.44 1.47 1.45 1.45 1.48 1.55 1.52 1.50 1.46 1.54 1.61 1.56
0.71 0.72 0.73 0.74 0.70 0.68 0.55 0.62 0.63 0.59 0.58 0.41 0.62 0.31 0.42 0.50 0.49 0.53 0.55 0.61 0.63 0.63 0.66 0.72 0.76 0.78 0.82 0.90 0.93 0.91 0.98 1.16 1.51 1.48 1.44 1.33 1.25 1.23 1.39 1.45 1.41 1.41 1.49 1.51
0.59 0.69 0.73 0.66 0.69 0.77 0.60 0.74 0.65 0.63 0.60 0.53 0.57 0.46 0.26 0.47 0.45 0.50 0.55 0.56 0.66 0.71 0.72 0.72 0.76 0.80 0.85 0.90 0.95 0.98 0.96 1.01 1.13 1.64 1.48 1.40 1.32 1.33 1.44 1.47 1.42 1.40 1.46 1.50
0.57 0.70 0.72 0.70 0.80 0.80 0.80 0.70 0.69 0.65 0.59 0.44 0.38 0.50 0.25 0.43 0.44 0.50 0.57 0.69 0.74 0.75 0.80 0.83 0.90 0.94 0.96 1.00 1.00 1.01 1.01 0.98 1.03 1.09 1.46 1.42 1.35 1.45 1.37 1.40 1.39 1.43 1.40 1.45
0.50 0.52 0.62 0.74 0.63 0.75 0.67 0.59 0.42 0.40 0.39 0.33 0.42 0.51 0.36 0.50 0.57 0.61 0.62 0.75 0.78 0.82 0.83 0.84 0.87 0.92 0.96 0.99 1.05 1.07 1.06 1.02 1.03 1.03 1.11 1.43 1.34 1.36 1.37 1.38 1.35 1.37 1.39 1.38
0.36 0.37 0.53 0.60 0.60 0.53 0.60 0.58 0.42 0.31 0.35 0.38 0.49 0.42 0.34 0.58 0.65 0.67 0.75 0.79 0.79 0.78 0.78 0.78 0.82 0.84 0.87 0.91 0.94 0.99 1.00 1.07 1.04 1.07 1.13 1.29 1.44 1.54 1.48 1.47 1.39 1.32 1.33 1.33
0.40 0.40 0.58 0.64 0.68 0.65 0.48 0.48 0.58 0.46 0.47 0.39 0.44 0.49 0.57 0.57 0.62 0.70 0.69 0.71 0.69 0.70 0.70 0.71 0.73 0.73 0.76 0.80 0.85 0.93 0.98 1.00 1.09 1.16 1.24 1.32 1.40 1.44 1.50 1.51 1.50 1.40 1.42 1.41
0.40 0.32 0.48 0.56 0.63 0.65 0.59 0.65 0.46 0.49 0.32 0.28 0.39 0.38 0.44 0.52 0.56 0.65 0.62 0.58 0.58 0.61 0.63 0.65 0.68 0.70 0.72 0.77 0.82 0.89 0.95 0.99 1.06 1.11 1.19 1.31 1.43 1.52 1.59 1.65 1.55 1.46 1.42 1.44
0.43 0.36 0.35 0.45 0.44 0.43 0.47 0.46 0.52 0.49 0.44 0.33 0.32 0.39 0.58 0.54 0.55 0.54 0.57 0.62 0.63 0.65 0.66 0.69 0.68 0.67 0.70 0.73 0.74 0.77 0.80 0.86 0.96 1.08 1.14 1.16 1.23 1.28 1.38 1.46 1.59 1.63 1.57 1.51
0.40 0.34 0.26 0.30 0.44 0.51 0.49 0.44 0.43 0.35 0.36 0.38 0.37 0.35 0.59 0.60 0.64 0.66 0.64 0.68 0.72 0.76 0.76 0.73 0.73 0.73 0.73 0.71 0.66 0.65 0.68 0.70 0.74 0.79 0.91 1.03 1.12 1.15 1.23 1.32 1.41 1.49 1.53 1.66
0.36 0.28 0.21 0.26 0.38 0.44 0.39 0.43 0.45 0.43 0.41 0.33 0.29 0.33 0.56 0.59 0.60 0.63 0.62 0.65 0.68 0.69 0.74 0.76 0.76 0.73 0.71 0.70 0.70 0.69 0.69 0.69 0.66 0.67 0.68 0.75 0.90 0.96 0.98 1.09 1.17 1.25 1.33 1.43
0.37 0.30 0.26 0.21 0.28 0.35 0.33 0.37 0.41 0.38 0.31 0.32 0.33 0.35 0.44 0.49 0.52 0.55 0.58 0.60 0.61 0.55 0.53 0.56 0.56 0.57 0.57 0.56 0.68 0.73 0.72 0.70 0.70 0.69 0.65 0.64 0.66 0.78 0.87 0.92 0.93 1.01 1.10 1.20
0.34 0.25 0.28 0.28 0.29 0.30 0.29 0.33 0.34 0.31 0.33 0.28 0.34 0.36 0.43 0.48 0.51 0.52 0.54 0.54 0.53 0.49 0.46 0.44 0.45 0.46 0.48 0.48 0.45 0.47 0.52 0.60 0.78 0.75 0.72 0.70 0.65 0.69 0.84 0.86 0.84 0.84 0.88 0.96
0.31 0.24 0.26 0.22 0.27 0.27 0.28 0.30 0.27 0.31 0.30 0.31 0.33 0.31 0.41 0.45 0.48 0.47 0.47 0.48 0.45 0.39 0.37 0.37 0.38 0.38 0.39 0.41 0.42 0.43 0.41 0.44 0.48 0.51 0.66 0.76 0.80 0.72 0.74 0.93 0.83 0.85 0.85 0.85
0.20 0.20 0.18 0.16 0.21 0.23 0.17 0.24 0.25 0.25 0.28 0.30 0.24 0.27 0.31 0.35 0.37 0.39 0.41 0.46 0.40 0.36 0.33 0.32 0.32 0.32 0.32 0.32 0.36 0.39 0.39 0.38 0.39 0.40 0.43 0.53 0.58 0.68 0.76 0.79 0.87 0.78 0.78 0.85
0.17 0.18 0.18 0.14 0.16 0.11 0.17 0.26 0.24 0.24 0.24 0.23 0.22 0.23 0.28 0.36 0.39 0.43 0.45 0.44 0.39 0.33 0.31 0.29 0.30 0.31 0.33 0.33 0.34 0.36 0.38 0.38 0.36 0.36 0.39 0.40 0.43 0.50 0.57 0.61 0.67 0.76 0.77 0.77
0.18 0.18 0.17 0.15 0.14 0.16 0.18 0.26 0.23 0.20 0.21 0.26 0.24 0.30 0.32 0.35 0.32 0.33 0.41 0.32 0.32 0.30 0.31 0.32 0.33 0.32 0.32 0.34 0.32 0.33 0.34 0.34 0.35 0.36 0.35 0.36 0.37 0.37 0.48 0.52 0.61 0.62 0.67 0.70
0.23 0.20 0.18 0.16 0.14 0.11 0.23 0.27 0.27 0.22 0.18 0.28 0.28 0.28 0.27 0.26 0.26 0.31 0.37 0.35 0.35 0.34 0.33 0.31 0.30 0.30 0.30 0.29 0.31 0.30 0.29 0.30 0.29 0.31 0.31 0.35 0.35 0.36 0.37 0.43 0.49 0.59 0.60 0.65
0.19 0.19 0.16 0.16 0.15 0.16 0.29 0.32 0.28 0.14 0.22 0.31 0.31 0.30 0.28 0.25 0.27 0.32 0.34 0.33 0.34 0.33 0.32 0.32 0.30 0.27 0.26 0.25 0.25 0.24 0.26 0.25 0.26 0.29 0.29 0.29 0.33 0.32 0.35 0.40 0.42 0.49 0.53 0.55
0.18 0.18 0.19 0.20 0.16 0.15 0.31 0.28 0.22 0.32 0.35 0.32 0.30 0.29 0.27 0.26 0.25 0.26 0.27 0.27 0.25 0.25 0.25 0.26 0.27 0.26 0.26 0.28 0.27 0.25 0.25 0.26 0.27 0.28 0.28 0.29 0.31 0.31 0.35 0.36 0.36 0.39 0.45 0.48
0.18 0.20 0.18 0.21 0.21 0.33 0.32 0.32 0.33 0.31 0.27 0.27 0.26 0.27 0.26 0.25 0.25 0.26 0.25 0.24 0.24 0.25 0.26 0.29 0.28 0.26 0.26 0.28 0.30 0.29 0.31 0.32 0.32 0.29 0.29 0.30 0.33 0.34 0.34 0.32 0.32 0.33 0.39 0.42
0.24 0.34 0.24 0.24 0.30 0.34 0.28 0.30 0.32 0.32 0.29 0.28 0.27 0.26 0.25 0.24 0.25 0.24 0.25 0.27 0.26 0.27 0.28 0.30 0.34 0.33 0.31 0.34 0.35 0.34 0.34 0.38 0.37 0.33 0.30 0.31 0.34 0.34 0.32 0.32 0.32 0.33 0.38 0.41
0.24 0.28 0.26 0.26 0.31 0.36 0.32 0.35 0.31 0.29 0.27 0.26 0.26 0.24 0.23 0.23 0.23 0.24 0.25 0.25 0.26 0.29 0.33 0.36 0.34 0.32 0.31 0.33 0.31 0.32 0.32 0.33 0.34 0.36 0.37 0.35 0.35 0.36 0.30 0.31 0.30 0.34 0.41 0.47
0.20 0.18 0.17 0.20 0.31 0.27 0.24 0.26 0.26 0.24 0.23 0.23 0.22 0.21 0.23 0.24 0.25 0.26 0.26 0.27 0.27 0.28 0.32 0.32 0.33 0.33 0.33 0.34 0.33 0.35 0.36 0.35 0.33 0.31 0.34 0.39 0.39 0.36 0.33 0.29 0.29 0.39 0.43 0.49
Wind_Speed
46 43 44 56 47 49 45 45 46 42 36 36 37 41 37 34 35 34 33 32 31 31 29 28 26 25 25 28 31 33 35 34 34 36 37 35 34 35 35 33 32 31 31 32
42 51 60 43 44 45 45 47 52 44 39 37 38 45 41 39 39 39 37 36 35 34 31 30 29 27 28 28 29 32 35 35 35 36 37 37 36 37 36 36 35 35 34 34
50 49 50 46 44 45 47 48 48 43 35 38 36 47 43 42 42 41 41 39 38 38 34 32 31 31 27 29 29 30 35 36 37 35 37 37 37 37 37 36 37 37 36 36
52 57 54 50 49 47 45 46 44 42 36 37 30 39 37 32 34 34 33 32 34 31 34 34 32 31 29 26 26 29 30 33 36 37 37 39 39 38 39 38 37 39 39 39
45 30 43 55 49 47 46 38 41 42 40 37 35 29 46 24 27 27 25 29 25 28 28 28 26 34 30 28 28 28 29 32 35 37 38 38 38 40 39 39 39 40 40 41
57 55 50 45 45 43 39 40 41 41 37 35 44 35 48 32 34 34 32 20 19 18 18 18 19 20 22 24 26 29 30 33 35 36 36 38 39 36 38 39 40 41 42 42
56 55 55 50 48 45 43 43 31 30 34 37 38 30 40 20 22 19 22 20 21 19 19 19 19 22 23 23 23 26 30 35 37 39 38 39 40 40 40 40 40 42 44 44
40 42 48 50 54 44 39 44 33 24 20 29 38 30 38 29 30 33 21 20 21 21 21 20 20 22 24 25 25 26 26 26 32 37 40 40 39 38 39 40 40 41 43 44
20 26 29 30 33 43 50 46 43 41 34 26 28 28 25 26 19 17 22 23 21 21 21 21 20 20 21 22 23 25 26 26 27 29 32 37 39 40 39 39 40 40 41 41
12 20 16 24 26 28 33 37 33 33 26 33 29 33 23 22 20 18 18 19 20 20 20 21 20 21 21 23 22 23 25 27 28 29 31 30 33 33 36 38 39 40 41 42
17 16 17 14 14 15 15 21 26 27 25 30 24 20 29 23 23 23 23 23 23 23 21 21 20 19 21 22 23 24 24 26 27 29 32 34 35 35 36 35 33 40 41 42
20 21 20 20 18 18 17 16 18 21 20 16 17 15 18 18 19 20 23 24 24 22 21 23 24 24 25 25 24 25 26 27 28 29 30 32 34 35 38 38 39 37 36 41
18 17 21 20 17 17 20 19 17 15 14 14 16 15 18 14 16 16 18 24 24 25 25 24 26 26 28 28 28 28 27 27 28 31 32 33 34 35 37 37 39 40 41 41
17 16 16 17 17 16 13 12 14 16 17 14 13 10 16 19 19 21 19 19 19 18 20 21 22 23 23 23 26 31 31 31 31 31 33 34 36 36 37 37 38 39 40 42
12 15 14 16 18 19 21 17 16 16 15 15 13 12 17 18 19 21 23 22 21 19 21 20 22 22 22 23 24 25 26 29 32 36 35 35 36 37 38 38 37 38 39 40
10 11 16 17 16 16 16 21 21 19 18 17 17 19 18 21 22 24 24 23 22 23 23 23 23 25 24 25 26 25 26 28 28 30 34 35 41 38 37 38 38 38 38 39
16 16 16 18 14 14 16 15 19 21 19 18 18 19 18 20 22 21 23 23 22 23 24 25 27 28 28 28 29 30 30 30 31 31 31 32 32 36 41 42 42 42 41 40
19 18 17 20 20 21 21 16 15 13 14 16 16 14 12 12 13 17 18 21 23 22 23 25 27 29 30 31 31 31 33 33 33 33 33 33 33 33 35 37 39 42 42 42
19 18 15 16 17 19 18 9 12 12 5 9 11 9 12 12 14 16 17 19 20 24 26 27 29 30 31 32 32 33 33 34 35 34 34 35 35 35 35 35 35 38 40 40
11 15 15 15 13 13 7 8 9 12 10 11 10 10 11 13 10 16 19 21 25 27 28 30 31 32 34 35 35 36 37 38 38 37 38 38 36 36 36 35 35 35 36 37
7 8 13 13 14 14 9 10 12 13 12 12 11 12 14 16 18 20 23 25 27 30 32 33 35 37 38 38 39 41 41 41 41 41 41 40 40 39 38 36 36 36 37 36
6 6 6 9 11 13 10 10 9 8 8 10 12 14 17 20 22 23 24 27 30 32 34 35 36 37 38 39 40 41 42 42 42 43 43 43 42 40 39 39 38 38 38 38
4 7 6 5 4 8 4 7 6 7 9 12 14 16 19 21 23 24 27 29 30 33 34 35 36 38 39 39 40 43 44 44 44 44 44 43 43 41 41 41 41 39 38 38
6 6 4 4 2 3 5 5 5 6 10 14 17 19 21 23 25 27 29 30 32 32 34 35 36 38 40 41 43 44 46 45 45 47 47 46 45 42 41 41 40 40 39 38
3 5 3 2 3 3 4 5 8 12 15 17 19 22 24 26 28 28 29 30 30 31 32 33 35 38 41 43 45 47 48 49 49 48 46 48 47 44 41 40 39 38 37 36
5 7 6 5 5 7 10 12 13 14 17 19 21 22 21 22 24 25 26 27 29 31 33 35 37 39 41 43 45 46 47 48 49 51 50 46 45 44 42 40 38 36 34 32
Wind_Direction
246 242 239 245 243 250 252 256 260 259 260 259 258 263 262 261 261 260 259 263 260 255 252 247 244 236 234 232 230 228 224 224 223 223 223 225 226 225 226 227 226 225 224 223
247 238 243 242 242 244 247 251 257 264 261 261 265 267 265 263 262 263 261 260 257 254 250 244 241 238 234 233 232 229 227 225 226 225 226 227 228 228 228 229 228 227 227 226
245 245 247 243 241 242 243 245 254 257 261 262 267 269 264 263 261 258 259 258 256 253 248 245 242 235 236 233 231 232 229 227 227 228 227 228 229 229 228 228 228 228 228 228
250 251 243 240 241 238 242 243 250 254 252 257 253 266 261 263 260 256 255 260 248 246 243 242 237 234 233 234 233 230 230 230 228 228 229 229 231 231 232 231 230 230 230 231
244 253 244 240 238 236 244 243 246 247 249 255 248 256 265 258 257 256 253 249 247 242 240 234 237 231 233 234 233 234 233 232 233 232 231 231 232 233 233 232 232 232 232 232
247 247 246 249 243 243 250 254 253 253 250 248 249 244 264 255 257 257 255 243 235 233 230 225 224 223 228 233 237 236 236 234 234 235 236 233 233 231 233 233 234 234 234 234
244 244 244 241 245 249 246 243 243 245 240 245 245 237 250 259 256 267 242 225 232 229 230 227 226 228 234 240 242 242 241 240 237 237 239 235 233 234 235 236 237 236 236 236
244 244 241 239 240 242 240 238 238 239 239 244 245 241 248 250 261 249 232 228 230 230 230 233 235 235 239 244 246 245 245 243 237 235 238 236 234 236 237 238 239 238 238 237
252 248 252 246 246 242 242 241 243 248 251 256 248 246 244 243 250 220 219 226 232 231 233 236 239 239 241 248 248 245 243 243 239 236 238 238 238 237 239 239 239 239 238 238
263 253 256 249 249 247 242 243 240 233 242 243 240 240 238 219 219 221 225 232 233 234 236 240 239 243 246 247 247 246 244 243 243 241 240 239 238 237 239 239 239 238 238 238
257 247 247 258 235 236 250 237 237 238 243 242 246 244 243 224 226 228 234 235 238 242 248 244 242 247 249 247 247 247 247 247 245 245 243 243 244 243 242 242 242 240 240 239
260 256 262 270 249 241 239 233 235 243 230 239 243 245 237 223 219 225 228 237 236 238 237 245 253 254 253 251 253 250 248 247 248 246 246 246 245 245 244 244 243 244 244 242
269 265 263 258 251 250 251 243 242 242 237 237 251 243 222 213 213 222 223 226 235 242 247 250 254 256 256 254 253 252 252 251 251 250 249 248 247 246 246 246 246 246 246 246
263 257 262 262 264 265 259 250 239 248 244 235 242 227 226 225 228 231 233 238 237 242 248 248 252 256 256 255 254 253 253 253 255 255 251 250 249 248 247 247 248 248 248 247
263 252 263 265 265 265 268 256 242 244 248 256 256 248 231 235 235 235 238 243 241 246 250 253 257 258 254 258 260 257 255 255 254 253 253 251 251 250 249 248 249 249 249 249
257 263 272 268 259 264 264 263 255 251 249 253 248 252 243 242 244 246 246 246 248 256 259 261 261 262 260 262 259 261 263 258 258 256 253 253 249 251 251 249 250 250 251 251
268 267 271 261 268 269 264 255 251 256 250 250 252 258 259 250 255 257 253 253 257 263 265 264 264 263 263 263 263 262 262 260 258 258 259 258 255 253 252 252 251 252 252 252
259 258 259 261 266 258 267 248 262 254 254 263 268 276 252 247 257 259 257 255 259 260 263 264 265 266 264 265 264 266 261 259 263 259 260 258 259 259 257 255 253 252 251 250
250 246 254 254 258 265 261 260 261 245 262 295 274 276 262 263 265 264 260 266 267 269 269 269 268 268 266 264 265 266 265 263 261 259 262 260 258 259 259 256 255 254 250 251
253 249 239 251 260 258 240 249 255 263 250 282 281 282 284 281 268 271 274 275 274 274 273 275 273 272 271 271 269 268 267 264 263 261 262 260 259 258 259 257 257 257 251 252
262 269 243 246 249 252 254 260 271 257 257 271 279 283 283 280 280 280 280 279 278 277 278 278 277 275 275 274 271 269 268 266 265 264 261 262 257 259 258 256 256 255 254 253
256 258 265 261 248 250 269 252 259 250 264 281 286 290 289 287 285 283 283 284 283 282 281 280 279 277 276 276 274 271 269 268 266 263 262 261 258 259 259 258 258 257 253 253
259 256 258 242 311 252 249 223 253 268 278 289 293 293 291 290 289 289 288 287 286 286 283 282 281 279 277 276 274 272 270 269 267 264 261 259 258 257 258 258 259 256 253 251
339 304 247 246 236 218 247 247 255 278 295 297 296 297 296 294 292 290 289 290 289 287 285 284 284 281 280 278 276 274 272 271 268 264 261 258 256 255 255 256 256 254 250 250
349 10 329 239 307 250 359 301 291 299 300 302 301 301 299 297 294 294 293 292 290 288 288 287 286 283 282 280 278 276 273 269 265 263 262 257 253 253 253 253 252 250 249 248
342 337 320 296 292 299 304 303 301 303 305 304 305 304 305 304 303 300 296 295 293 291 290 290 288 287 286 284 282 278 274 269 265 260 256 255 251 249 248 248 247 245 242 241